TimePST,TemperatureF,Dew PointF,Humidity,Sea Level PressureIn,VisibilityMPH,Wind Direction,Wind SpeedMPH,Gust SpeedMPH,PrecipitationIn,Events,Conditions,WindDirDegrees,DateUTC
12:58 AM,37.0,17.6,45,30.02,10.0,South,4.6,-,N/A,,Partly Cloudy,190,2013-01-07 08:58:00
1:16 AM,37.4,19.4,48,30.00,10.0,West,10.4,-,N/A,Rain,Light Rain,280,2013-01-07 09:16:00
1:27 AM,39.2,23.0,52,30.01,10.0,Variable,5.8,-,N/A,,Partly Cloudy,0,2013-01-07 09:27:00
1:34 AM,39.2,21.2,49,30.02,10.0,North,6.9,-,N/A,Rain,Light Rain,10,2013-01-07 09:34:00
1:53 AM,44.6,26.6,49,30.00,10.0,ESE,1.2,-,N/A,,Partly Cloudy,110,2013-01-07 09:53:00
1:58 AM,43.3,26.2,51,30.00,10.0,SSW,2.3,-,0.00,,Partly Cloudy,200,2013-01-07 09:58:00
2:58 AM,40.1,24.4,54,30.00,10.0,Calm,Calm,-,N/A,,Mostly Cloudy,0,2013-01-07 10:58:00
3:58 AM,40.3,24.4,53,29.99,10.0,South,3.5,-,N/A,,Clear,170,2013-01-07 11:58:00
4:58 AM,41.0,24.1,51,30.01,10.0,SSE,5.8,-,N/A,,Clear,160,2013-01-07 12:58:00
5:58 AM,39.6,23.0,52,30.04,10.0,ESE,2.3,-,N/A,,Mostly Cloudy,110,2013-01-07 13:58:00
6:58 AM,40.3,20.7,46,30.07,10.0,SE,4.6,-,N/A,,Clear,130,2013-01-07 14:58:00
7:58 AM,39.6,20.5,46,30.10,10.0,SE,3.5,-,N/A,,Clear,130,2013-01-07 15:58:00
8:58 AM,45.5,21.9,39,30.10,10.0,SSE,8.1,-,N/A,,Clear,150,2013-01-07 16:58:00
9:58 AM,49.3,17.1,28,30.13,10.0,South,5.8,-,N/A,,Clear,190,2013-01-07 17:58:00
10:58 AM,52.2,13.5,21,30.11,10.0,NNW,2.3,-,N/A,,Clear,330,2013-01-07 18:58:00
11:58 AM,54.3,13.8,20,30.07,10.0,Variable,4.6,-,N/A,,Clear,0,2013-01-07 19:58:00
12:58 PM,55.9,13.5,19,30.02,10.0,SSE,2.3,-,N/A,,Clear,150,2013-01-07 20:58:00
1:58 PM,57.9,12.2,16,30.01,10.0,South,3.5,-,N/A,,Clear,180,2013-01-07 21:58:00
2:58 PM,59.4,12.0,16,30.00,10.0,ESE,5.8,-,N/A,,Clear,120,2013-01-07 22:58:00
3:58 PM,59.4,12.9,16,30.01,10.0,East,5.8,-,N/A,,Clear,90,2013-01-07 23:58:00
4:58 PM,55.0,13.3,19,30.02,10.0,East,5.8,-,N/A,,Clear,100,2013-01-08 00:58:00
5:58 PM,49.5,14.5,25,30.04,10.0,NW,6.9,-,N/A,,Clear,320,2013-01-08 01:58:00
6:58 PM,45.3,15.4,30,30.05,10.0,NE,3.5,-,N/A,,Clear,40,2013-01-08 02:58:00
7:58 PM,45.0,14.2,29,30.05,10.0,ENE,6.9,-,N/A,,Mostly Cloudy,70,2013-01-08 03:58:00
8:58 PM,46.8,12.2,25,30.06,10.0,West,2.3,-,N/A,,Clear,260,2013-01-08 04:58:00
9:58 PM,42.3,14.2,32,30.06,10.0,WNW,6.9,-,N/A,,Scattered Clouds,300,2013-01-08 05:58:00
10:58 PM,44.1,14.2,30,30.06,10.0,North,1.2,-,N/A,,Clear,350,2013-01-08 06:58:00
11:58 PM,42.3,14.2,32,30.07,10.0,Variable,2.3,-,N/A,,Clear,0,2013-01-08 07:58:00